STARLINK-11261, 60724

Orbit data source: Space-Track

STARLINK-11261, 60724 is a payload satellite owned by SpaceX/Seattle (US) in LEO that was launched on Wed, 28 Aug 2024 UTC via an FALCON 9 launch vehicle from the Air Force Eastern Test Range (AFETR). Payload-class satellites include a variety of spacecraft equipped with specific instruments for various scientific and technological missions. These include communications satellites like Starlink; space stations such as the ISS; scientific satellites like the Hubble; Earth observation satellites from companies like Planet Labs, Umbra, and HawkEye 360; GPS; miniature CubeSats for education and research; and military/defense satellites.

Loading next visibility...
Identifier
60724, 2024-152E
Orbit
LEO
Country
Flag of USUS
Related business
Manufacturer
SpaceX/Seattle
Mission
Operational Commercial Communications
Bus & Motor
STARLINK V2MD, Unknown motor
Mass
960 kg wet, ~910 kg dry
Launch date (UTC)
2024-08-28 (1 year ago)
Launch vehicle
FALCON 9
Launch site
Air Force Eastern Test Range (AFETR)
Object type
Payload
Rocket body
Debris
Shape & HBR
Box + 2 Pan, 14.5 m
Radar Cross Section
36.964 m², Large (>1 m²)

Expand to show TLE details & history
Last TLE update: 1 day ago

TLE from 1 day ago
0 STARLINK-11261
1 60724U 24152E   25260.44906777 -.00000664  00000-0 -62460-6 0  9994
2 60724  53.1589 250.4204 0000746  85.6148 274.4955 15.69712761 61624
Epoch: 2025-09-17T10:46Z
TLE epoch observation values (Epoch: 2025-09-17T10:46:39.455Z)
Latitude
-0.00002°
Longitude
92.13113°
Altitude
360.594 km
Speed
7.694 km/s
True Right ascension
16h 41m 40s
True Declination
0° 00' 00"
Sunlit
Object was in daylight at epoch
Visualization orbit readout
Latitude
Unknown
Longitude
Unknown
Altitude
Unknown
Speed
Unknown
Apparent Right ascension
Unknown
Apparent Declination
Unknown
Sunlit
N/A
Visualization observer readout
Local Sidereal Time
11:10:02
Azimuth
Unknown
Elevation
Unknown
Doppler factor
Unknown
Orbital elements
Apogee altitude
360.482 km
Perigee altitude
359.477 km
Semi-major axis
6,738.117 km
Eccentricity
0.00007
Inclination
53.1589°
RAAN
250.4204°
Arg. of periapsis
85.6148°
True anomaly
274.48698°
Mean anomaly
274.4955°
Eccentric anomaly
274.49124°
Mean motion
3.92406 °/min
Orbital period
91.74 mins
BSTAR
-6.246e-7
Loading maneuver chart data...
Computing Atmospheric mass density...
Loading historical data...
Loading historical data...
Loading historical data...
Loading historical data...
Loading historical data...
Loading historical data...
Loading historical data...

Documentation

Showing up to 5 results
|